This demonstration page uses our WeatherBlox Daily Observations layout. Learn more.

Left ArrowRight Arrow

Hourly Observations for July 17, 2020

Temp ( °F °C ) Dew Point ( °F °C ) Humidity (%) Winds ( mph kmh ) Pressure ( in mb ) Visibility ( mi km ) Precip ( " mm )
12:54 am 00:54 Clear 76 24.4 70 21.1 82 82 SSE 8 13 30.01 1016 10 16.0934 0 0
1:54 am 01:54 Clear 75 23.9 70 21.1 84 84 SSE 8 13 30 1016 10 16.0934 0 0
2:54 am 02:54 Clear 72 22.2 69 20.6 91 91 S 7 11 29.98 1015 10 16.0934 0 0
3:54 am 03:54 Clear 72 22.2 68 20 87 87 S 6 9 29.98 1015 10 16.0934 0 0
4:54 am 04:54 Clear 73 22.8 69 20.6 87 87 SSE 10 17 29.97 1015 10 16.0934 0 0
5:54 am 05:54 Clear 71 21.7 68 20 90 90 S 6 9 29.99 1016 10 16.0934 0 0
6:54 am 06:54 Sunny 73 22.8 69 20.6 87 87 SSW 3 6 30 1016 9 14.48406 0 0
7:54 am 07:54 Sunny 75 23.9 70 21.1 84 84 SSE 8 13 30.01 1016 9 14.48406 0 0
8:54 am 08:54 Sunny 79 26.1 71 21.7 77 77 S 10 17 29.98 1015 10 16.0934 0 0
9:54 am 09:54 Sunny 82 27.8 71 21.7 69 69 SSE 14 22 29.96 1015 10 16.0934 0 0
10:54 am 10:54 Sunny 86 30 75 23.9 70 70 SSE 12 19 29.95 1014 9 14.48406 0 0
11:54 am 11:54 Sunny 89 31.7 75 23.9 63 63 SSE 16 26 29.93 1014 9 14.48406 0 0
12:54 pm 12:54 Sunny 90 32.2 77 25 66 66 SE 14 22 29.92 1013 9 14.48406 0 0
1:37 pm 13:37 Mostly Cloudy 89 31.7 77 25 68 68 S 15 24 29.88 1012 8 12.87472 0 0
1:54 pm 13:54 Mostly Cloudy 90 32.2 78 25.6 68 68 S 14 22 29.91 1013 8 12.87472 0 0
2:13 pm 14:13 Mostly Cloudy 90 32.2 78 25.6 68 68 S 16 26 29.87 1011 9 14.48406 0 0
2:25 pm 14:25 Mostly Cloudy 91 32.8 78 25.6 66 66 S 15 24 29.86 1011 9 14.48406 0 0
2:54 pm 14:54 Mostly Cloudy 90 32.2 77 25 66 66 S 13 20 29.91 1013 9 14.48406 0 0
3:23 pm 15:23 Partly Cloudy 91 32.8 77 25 64 64 S 18 30 29.86 1011 9 14.48406 0 0
3:54 pm 15:54 Mostly Sunny 92 33.3 77 25 62 62 S 15 24 29.9 1012 9 14.48406 0 0
4:12 pm 16:12 Mostly Cloudy 91 32.8 76 24.4 61 61 SSE 20 31 29.84 1011 9 14.48406 0 0
4:31 pm 16:31 Partly Cloudy 90 32.2 77 25 66 66 S 15 24 29.85 1011 9 14.48406 0 0
4:54 pm 16:54 Mostly Sunny 91 32.8 76 24.4 61 61 S 18 30 29.88 1012 9 14.48406 0 0
5:54 pm 17:54 Sunny 90 32.2 76 24.4 63 63 SSE 15 24 29.86 1011 9 14.48406 0 0
6:54 pm 18:54 Sunny 89 31.7 72 22.2 57 57 SSE 17 28 29.85 1011 9 14.48406 0 0
7:54 pm 19:54 Sunny 87 30.6 75 23.9 67 67 SSE 12 19 29.85 1011 9 14.48406 0 0
8:54 pm 20:54 Sunny 85 29.4 75 23.9 72 72 S 13 20 29.84 1010 9 14.48406 0 0
9:54 pm 21:54 Clear 82 27.8 76 24.4 82 82 S 9 15 29.85 1011 10 16.0934 0 0
10:54 pm 22:54 Clear 82 27.8 75 23.9 79 79 S 14 22 29.84 1010 10 16.0934 0 0
11:54 pm 23:54 Clear 81 27.2 74 23.3 79 79 S 12 19 29.83 1010 10 16.0934 0 0

Powered by AerisWeather